Showing default

SJ-7, 28737

Orbit data source: Space-Track

SJ-7, 28737 is a payload satellite owned by CASC (CN) in SSO that was launched on Tue, 05 Jul 2005 UTC via a CHANG ZHENG 2D launch vehicle from the Jiuquan Satellite Launch Center, China (JSC). Payloads include a variety of satellites, spacecraft, and rockets equipped with specific instruments for various scientific and technological missions. These include communications satellites like Starlink; space stations such as the ISS; scientific satellites like the Hubble; Earth observation satellites from companies like Planet Labs, Umbra, and HawkEye 360; GPS; miniature CubeSats for education and research; and military/defense satellites.

Loading next visibility...
SJ-7 details
Identifier
28737, 2005-024A
Orbit
SSO
Last TLE update11 hours ago
Origin
Flag of CNCASC (CN / PRC)
ManufacturerSAST
MissionOperational Civil Technology
Bus & MotorFY-1?, Unknown motor
Mass~1,000 kg wet, ~1,000 kg dry
Launch date (UTC)
2005-07-05 (19 years ago)
Launch vehicle
CHANG ZHENG 2D
Launch site
Jiuquan Satellite Launch Center, China (JSC)
Object type
Payload
Rocket body
Debris
Shape & HBRBox + 1 Pan, 2 m
Radar Cross Section6.000 m², Large (>1 m²)

Expand to show TLE details & history

TLE from 11 hours ago
0 SJ-7
1 28737U 05024A   24361.05032248  .00014351  00000-0  86863-3 0  9996
2 28737  97.7663   8.4169 0021652  87.2346 273.1361 15.10532761 66478
Epoch: 2024-12-26T01:12Z
Definitive object data (Epoch: 2024-12-26T01:12:27.862Z)
Latitude0.00001°
Longitude-104.73448°
Altitude536.854 km
Speed7.595 km/s
True Right ascension00h 33m 40s
True Declination0° 00' 00"
Sunlit
Object was in daylight at TLE epoch
Visualization TLE readout
Latitude-13.76402°
Longitude-102.36274°
Altitude542.795 km
Speed7.589 km/s
Apparent Right ascension00h 15m 44s
Apparent Declination-26° 22' 49"
Sunlit
Object is in daylight
Visualization observer readout
Local Sidereal Time11:38:01
Azimuth327.035° NNW
Elevation-74.353°
Doppler factor1
Orbital elements
Apogee altitude546.529 km
Perigee altitude516.607 km
Semi-major axis6,909.705 km
Eccentricity0.0021652
Inclination97.7663°
RAAN8.4169°
Arg. of periapsis87.2346°
True anomaly272.88832°
Mean anomaly273.1361°
Eccentric anomaly273.01221°
Mean motion3.7788 °/min
BSTAR0.00086863
Orbital period95.27 mins
Loading maneuver chart data...
Loading historical data...
Loading historical data...
Loading historical data...
Loading historical data...
Loading historical data...
Loading historical data...
Loading historical data...

SJ-7 Visibility forecast

Observer location: undefined°, undefined

Span
Click to sort rows by Start time (UTC) header in descending order
Start Az.
Max El. time (UTC)
Max El. Az.
Max El.
End time (UTC)
End Az.
6 mins2024-12-26 12:54:32.060Z42.094° NE2024-12-26 12:57:32.060Z99.653° ESE22.893°2024-12-26 13:00:32.060Z152.725° SSE
5 mins2024-12-27 01:11:32.060Z201.177° SSW2024-12-27 01:13:32.060Z253.629° W32.776°2024-12-27 01:16:32.060Z327.475° NNW
|